Content
SEND FEEDBACK

Daily
Averages
Monthly
Summary
Mexico

CANCUN, QUINTANA ROO


Home > North America > Mexico > Quintana Roo
Elevation: 9 meters     Latitude: 21 09N     Longitude: 086 49W

WEATHER
 
SELECT A DAY
Number of Records: 166,377;   Date Range: 1/1/95 - 10/21/14
 
SHARE

PRINT THIS DATA

[ ← Previous Day ]
WEATHER ALMANAC - 4 APRIL, 2013
[ Next Day → ]
[ °F ]   °C
Weather ElementAverageHighLow
Temperature27.4 °C30 °C (12:47 pm)25 °C (11:50 pm)
Dewpoint23.1 °C24 °C (5:49 pm)22 °C (10:48 pm)
Humidity77.8 %89 % (8:40 pm)66 % (12:47 pm)
Barometer1012.9 hPa1015.2 hPa (8:40 pm)1010.8 hPa (4:55 pm)
Wind Speed25.9 km/h48.1 km/h (10:45 am)
Wind Gust48.1 km/h (9:43 am)
Weather ElementAverage
Visibility10.9 km
Wind DirectionSSE (173.5 °)

Weather ElementTotal
Precipitation---
Cooling Degree Days9.2 (Base 18.3)
Growing Degree Days17.5 (Base 10)
Averaged from 23 records on 4 April, 2013
WEATHER CONDITIONS BREAKOUT
WIND DIRECTION BREAKOUT
WEATHER BY HOUR - 4 APRIL, 2013
[ °F ]   °C
Local TimeTemperatureDewpointHumidityBarometerVisibilityWind DirectionWind SpeedGust SpeedPrecipitationEventsConditions
1:44 AM26 °C23 °C83 %1011.9 hPa11.3 kmSE (140°)20.4 km/hPartly Cloudy
2:46 AM26 °C23 °C83 %1011.5 hPa11.3 kmSE (140°)24.1 km/hScattered Clouds
3:45 AM26 °C23 °C83 %1011.5 hPa11.3 kmSSE (160°)22.2 km/hScattered Clouds
4:44 AM26 °C23 °C83 %1011.9 hPa11.3 kmSE (140°)22.2 km/hScattered Clouds
5:43 AM26 °C23 °C83 %1012.2 hPa11.3 kmSouth (170°)24.1 km/hScattered Clouds
6:42 AM27 °C23 °C79 %1012.9 hPa11.3 kmSSE (160°)25.9 km/hMostly Cloudy
7:47 AM28 °C23 °C74 %1013.5 hPa11.3 kmSSE (150°)31.5 km/hMostly Cloudy
8:46 AM28 °C23 °C74 %1013.2 hPa11.3 kmSouth (180°)25.9 km/hMostly Cloudy
9:43 AM29 °C23 °C70 %1014.2 hPa9.7 kmSSE (160°)29.6 km/h48.1 km/hMostly Cloudy
10:45 AM29 °C23 °C70 %1014.6 hPa9.7 kmSE (140°)48.1 km/hScattered Clouds
11:51 AM29 °C23 °C70 %1014.2 hPa9.7 kmSouth (180°)35.2 km/hScattered Clouds
12:47 PM30 °C23 °C66 %1012.9 hPa9.7 kmSSE (150°)35.2 km/hMostly Cloudy
1:45 PM29 °C23 °C70 %1012.2 hPa9.7 kmSSE (160°)31.5 km/hMostly Cloudy
2:40 PM30 °C23 °C66 %1012.2 hPa11.3 kmSSE (150°)25.9 km/hMostly Cloudy
3:44 PM29 °C23 °C70 %1011.9 hPa11.3 kmSouth (170°)27.8 km/hMostly Cloudy
4:55 PM28 °C23 °C74 %1010.8 hPa11.3 kmSE (140°)27.8 km/hMostly Cloudy
5:49 PM27 °C24 °C84 %1012.2 hPa11.3 kmSE (140°)22.2 km/hMostly Cloudy
6:40 PM27 °C24 °C84 %1012.5 hPa11.3 kmSE (140°)18.5 km/hMostly Cloudy
7:43 PM27 °C24 °C84 %1013.5 hPa11.3 kmSouth (170°)20.4 km/hMostly Cloudy
8:40 PM26 °C24 °C89 %1015.2 hPa11.3 kmWSW (240°)7.4 km/hMostly Cloudy
9:47 PM26 °C24 °C89 %1012.2 hPa11.3 kmSouth (190°)37 km/hMostly Cloudy
10:48 PM26 °C22 °C78 %1013.5 hPa11.3 kmNW (310°)16.7 km/hMostly Cloudy
11:50 PM25 °C22 °C83 %1013.9 hPa11.3 kmNW (310°)14.8 km/hMostly Cloudy
Hourly data recorded from MMUN, located 0 kilometers away from Cancun, Quintana Roo







STORIES FROM OUR PARTNERS